Location: Riverton
(43.0250°N, 108.3790°W)
Time: 02:58:32
(UTC-06:00)

Amateur Radio Satellites - All Passes

Search period start: 25 July 2014 02:28
Search period end: 26 July 2014 02:28
Location: Riverton, 43.0250°N, 108.3790°W

Satellite Date Start Highest point End Downlink Frequencies (MHz)
Time Altitude Azimuth
Oscar 19 25 Jul 02:57:16 03:02:28 82° 104° (ESE) 03:07:38 437.125 CW, 437.150 USB
PCSat 25 Jul 03:00:37 03:05:53 52° 305° (NW) 03:11:12 145.825 MHz
ISS 25 Jul 03:17:45 03:20:47 31° 339° (NNW) 03:23:50 145.800 FM
Oscar 16 25 Jul 03:25:01 03:30:03 55° 289° (WNW) 03:35:04 437.025 USB, Beacon 2401.1428
TMSAT-1 25 Jul 03:31:20 03:35:38 25° 94° (E) 03:39:53 436.925 FM
ITAMSAT 1 25 Jul 03:36:33 03:41:46 87° 105° (ESE) 03:46:57 435.822 SSB
OPAL 25 Jul 03:45:43 03:50:26 47° 68° (ENE) 03:55:11 ?
AO-Echo 25 Jul 03:48:30 03:53:38 69° 287° (WNW) 03:58:35 ?
JAS-1B 25 Jul 03:52:01 04:01:41 70° 101° (E) 04:10:03 435.800 - 435.900 CW/SSB
Gurwin Techsat 1B 25 Jul 03:52:15 03:57:27 52° 100° (E) 04:02:36 435.225 FM
AO-27 25 Jul 03:54:40 03:59:49 65° 288° (WNW) 04:04:55 436.795 MHz FM
Uribyol 2 25 Jul 03:57:17 04:02:21 59° 288° (WNW) 04:07:24 436.500 FM
Uosat F 25 Jul 04:06:30 04:07:07 10° 88° (E) 04:07:44 435.120 FM
Sapphire 25 Jul 04:12:06 04:15:59 20° 319° (NW) 04:19:53 437.095 MHz 1200 baud AX-25 AFSK
Oscar 10/S400 25 Jul 04:35:28 05:44:39 49° 218° (SW) 12:04:00 145.825 - 145.975 CW/USB, Beacon 145.810 USB
Oscar 19 25 Jul 04:38:27 04:41:07 14° 301° (WNW) 04:43:48 437.125 CW, 437.150 USB
PCSat 25 Jul 04:48:34 04:50:37 12° 327° (NNW) 04:52:39 145.825 MHz
AO-7 25 Jul 04:53:10 05:00:39 35° 97° (E) 05:08:03 29.400 - 29.500 MHz
ISS 25 Jul 04:55:48 04:58:15 18° 360° (N) 05:00:43 145.800 FM
TMSAT-1 25 Jul 05:10:43 05:15:44 44° 291° (WNW) 05:20:43 436.925 FM
Lituanica SAT-1 25 Jul 05:12:50 05:14:31 20° 22° (NNE) 05:16:11 437.275 MHz beacon
ITAMSAT 1 25 Jul 05:18:02 05:20:32 14° 302° (WNW) 05:23:02 435.822 SSB
OPAL 25 Jul 05:25:53 05:29:34 21° 265° (W) 05:33:16 ?
Gurwin Techsat 1B 25 Jul 05:33:00 05:37:03 23° 297° (WNW) 05:41:04 435.225 FM
Uosat F 25 Jul 05:41:32 05:46:36 89° 105° (ESE) 05:51:37 435.120 FM
JAS-1B 25 Jul 05:43:07 05:51:21 33° 303° (WNW) 05:58:50 435.800 - 435.900 CW/SSB
STRAND 1 25 Jul 06:02:36 06:06:38 24° 64° (ENE) 06:10:41 ?
Hamsat 25 Jul 06:05:55 06:07:50 13° 90° (E) 06:09:46 145.90 MHz
KITSAT 1 25 Jul 06:11:55 06:17:39 22° 103° (ESE) 06:23:23 435.175 FM
ISS 25 Jul 06:32:44 06:35:45 29° 20° (NNE) 06:38:45 145.800 FM
Lituanica SAT-1 25 Jul 06:45:17 06:47:09 28° 220° (SW) 06:49:01 437.275 MHz beacon
AO-7 25 Jul 06:45:39 06:53:43 55° 296° (WNW) 07:01:43 29.400 - 29.500 MHz
JAS-2 25 Jul 06:57:41 07:03:20 36° 94° (E) 07:08:24 435.800 - 435.900 CW/SSB, 435.910 FM
Uosat F 25 Jul 07:22:31 07:24:38 13° 302° (WNW) 07:26:46 435.120 FM
MaSat-1 25 Jul 07:27:55 07:32:57 41° 56° (NE) 07:37:51 437.345 MHz
Hamsat 25 Jul 07:39:57 07:44:11 59° 286° (WNW) 07:48:25 145.90 MHz
STRAND 1 25 Jul 07:40:36 07:45:32 46° 261° (W) 07:50:30 ?
SO-67 25 Jul 07:50:25 07:53:22 25° 95° (E) 07:56:17 435.3500 MHz FM
KITSAT 1 25 Jul 08:03:58 08:12:05 84° 302° (WNW) 08:20:15 435.175 FM
ISS 25 Jul 08:09:19 08:12:38 55° 218° (SW) 08:15:55 145.800 FM
Saudisat 1A 25 Jul 08:33:17 08:37:02 28° 114° (ESE) 08:40:49 436.775 MHz
AO-7 25 Jul 08:40:55 08:44:41 14° 318° (NW) 08:48:26 29.400 - 29.500 MHz
JAS-2 25 Jul 08:42:49 08:48:22 34° 296° (WNW) 08:53:23 435.800 - 435.900 CW/SSB, 435.910 FM
MaSat-1 25 Jul 09:05:35 09:10:12 30° 254° (WSW) 09:14:37 437.345 MHz
SO-67 25 Jul 09:23:45 09:26:17 19° 292° (WNW) 09:28:48 435.3500 MHz FM
Sapphire 25 Jul 09:31:25 09:34:44 16° 38° (NE) 09:38:03 437.095 MHz 1200 baud AX-25 AFSK
UKube-1 25 Jul 09:37:02 09:39:56 17° 93° (E) 09:42:49 145.840 MHz, 145.915 MHz
KITSAT 1 25 Jul 10:02:12 10:08:43 26° 325° (NW) 10:15:16 435.175 FM
HO-68 25 Jul 10:04:09 10:11:07 52° 101° (E) 10:18:02 435.675 MHz FM
PCSat 25 Jul 10:04:37 10:09:12 27° 46° (NE) 10:13:46 145.825 MHz
Saudisat 1A 25 Jul 10:12:26 10:16:31 36° 312° (NW) 10:20:37 436.775 MHz
Oscar 11 25 Jul 10:25:58 10:29:47 30° 96° (E) 10:33:36 145.825 FM, Beacon 2401.500 USB
FUNcube-1 25 Jul 10:37:09 10:39:22 14° 91° (E) 10:41:34 145.950 - 145.970 MHz USB
UKube-1 25 Jul 11:12:12 11:16:22 45° 289° (WNW) 11:20:30 145.840 MHz, 145.915 MHz
Sapphire 25 Jul 11:13:37 11:19:05 78° 59° (ENE) 11:24:30 437.095 MHz 1200 baud AX-25 AFSK
PCSat 25 Jul 11:47:38 11:52:55 53° 246° (WSW) 11:58:09 145.825 MHz
HO-68 25 Jul 11:52:20 11:58:32 33° 299° (WNW) 12:04:42 435.675 MHz FM
Oscar 11 25 Jul 12:02:17 12:05:52 26° 293° (WNW) 12:09:27 145.825 FM, Beacon 2401.500 USB
KITSAT 1 25 Jul 12:03:59 12:07:37 13° 355° (N) 12:11:15 435.175 FM
FUNcube-1 25 Jul 12:12:02 12:16:04 50° 287° (WNW) 12:20:07 145.950 - 145.970 MHz USB
Oscar 19 25 Jul 12:38:11 12:41:29 18° 61° (ENE) 12:44:48 437.125 CW, 437.150 USB
JAS-1B 25 Jul 12:49:49 12:55:23 18° 46° (NE) 13:01:11 435.800 - 435.900 CW/SSB
Sapphire 25 Jul 12:58:49 13:01:48 15° 256° (WSW) 13:04:48 437.095 MHz 1200 baud AX-25 AFSK
Oscar 16 25 Jul 13:04:28 13:08:54 31° 66° (ENE) 13:13:22 437.025 USB, Beacon 2401.1428
ITAMSAT 1 25 Jul 13:18:01 13:21:44 20° 62° (ENE) 13:25:26 435.822 SSB
RS-15 25 Jul 13:21:48 13:30:56 31° 105° (ESE) 13:39:53 29.354 - 29.394 USB, Beacon 29.352 USB
AO-Echo 25 Jul 13:24:36 13:28:42 23° 63° (ENE) 13:32:50 ?
AO-27 25 Jul 13:35:19 13:39:43 28° 65° (ENE) 13:44:08 436.795 MHz FM
Uribyol 2 25 Jul 13:37:31 13:42:01 31° 66° (ENE) 13:46:32 436.500 FM
Gurwin Techsat 1B 25 Jul 13:38:04 13:40:25 13° 57° (ENE) 13:42:46 435.225 FM
KITSAT 1 25 Jul 14:01:22 14:06:56 20° 26° (NNE) 14:12:29 435.175 FM
SO-50 25 Jul 14:03:37 14:08:02 67° 121° (ESE) 14:12:34 436.795 FM
AO-7 25 Jul 14:06:29 14:09:58 13° 41° (NE) 14:13:26 29.400 - 29.500 MHz
Oscar 19 25 Jul 14:15:15 14:20:19 64° 258° (WSW) 14:25:25 437.125 CW, 437.150 USB
JAS-1B 25 Jul 14:35:16 14:43:49 63° 68° (ENE) 14:53:27 435.800 - 435.900 CW/SSB
Oscar 16 25 Jul 14:43:34 14:48:11 34° 263° (W) 14:52:49 437.025 USB, Beacon 2401.1428
UOSAT-12 25 Jul 14:48:11 14:50:44 15° 109° (ESE) 14:53:19 437.025 FM, 437.400 FM
TMSAT-1 25 Jul 14:52:50 14:57:47 42° 69° (ENE) 15:02:45 436.925 FM
ITAMSAT 1 25 Jul 14:55:39 15:00:47 58° 259° (W) 15:05:57 435.822 SSB
AO-Echo 25 Jul 15:01:59 15:07:07 50° 261° (W) 15:12:19 ?
AO-27 25 Jul 15:14:13 15:19:04 39° 262° (W) 15:23:57 436.795 MHz FM
Gurwin Techsat 1B 25 Jul 15:14:16 15:19:35 87° 75° (ENE) 15:24:56 435.225 FM
Uribyol 2 25 Jul 15:16:39 15:21:24 35° 263° (W) 15:26:10 436.500 FM
Uosat F 25 Jul 15:19:04 15:22:27 18° 61° (ENE) 15:25:51 435.120 FM
RS-15 25 Jul 15:31:07 15:42:15 76° 306° (NW) 15:53:14 29.354 - 29.394 USB, Beacon 29.352 USB
SO-50 25 Jul 15:45:46 15:49:03 19° 321° (NW) 15:52:24 436.795 FM
AO-7 25 Jul 15:52:51 16:00:51 53° 63° (ENE) 16:08:53 29.400 - 29.500 MHz
KITSAT 1 25 Jul 15:56:21 16:04:19 57° 51° (NE) 16:12:13 435.175 FM
OPAL 25 Jul 15:57:22 15:58:28 11° 90° (E) 15:59:35 ?
UOSAT-12 25 Jul 16:25:43 16:30:18 68° 306° (NW) 16:35:00 437.025 FM, 437.400 FM
JAS-1B 25 Jul 16:27:06 16:34:48 35° 269° (W) 16:43:25 435.800 - 435.900 CW/SSB
TMSAT-1 25 Jul 16:33:27 16:37:50 26° 266° (W) 16:42:15 436.925 FM
Uosat F 25 Jul 16:55:47 17:00:46 61° 259° (WSW) 17:05:47 435.120 FM
Gurwin Techsat 1B 25 Jul 16:58:19 17:00:14 12° 272° (W) 17:02:09 435.225 FM
Saudisat 1A 25 Jul 16:58:41 17:02:40 32° 47° (NE) 17:06:37 436.775 MHz
Hamsat 25 Jul 17:01:45 17:02:50 11° 61° (ENE) 17:03:56 145.90 MHz
JAS-2 25 Jul 17:09:54 17:15:52 25° 60° (ENE) 17:21:34 435.800 - 435.900 CW/SSB, 435.910 FM
OPAL 25 Jul 17:32:55 17:38:00 89° 108° (ESE) 17:43:07 ?
AO-7 25 Jul 17:46:15 17:53:50 38° 262° (W) 18:01:28 29.400 - 29.500 MHz
RS-15 25 Jul 17:47:28 17:56:44 30° 335° (NNW) 18:06:01 29.354 - 29.394 USB, Beacon 29.352 USB
KITSAT 1 25 Jul 17:52:15 17:59:22 36° 252° (WSW) 18:06:28 435.175 FM
UOSAT-12 25 Jul 18:08:56 18:11:21 14° 327° (NNW) 18:13:47 437.025 FM, 437.400 FM
SO-67 25 Jul 18:26:29 18:27:36 11° 65° (ENE) 18:28:42 435.3500 MHz FM
Hamsat 25 Jul 18:34:02 18:38:12 75° 258° (WSW) 18:42:24 145.90 MHz
Saudisat 1A 25 Jul 18:38:19 18:42:13 31° 245° (WSW) 18:46:06 436.775 MHz
JAS-2 25 Jul 18:52:20 19:00:12 78° 257° (WSW) 19:07:42 435.800 - 435.900 CW/SSB, 435.910 FM
OPAL 25 Jul 19:13:50 19:16:11 13° 304° (NW) 19:18:31 ?
STRAND 1 25 Jul 19:50:04 19:55:06 55° 101° (E) 20:00:06 ?
SO-67 25 Jul 19:56:54 20:00:15 47° 261° (W) 20:03:38 435.3500 MHz FM
RS-15 25 Jul 20:05:27 20:13:54 24° 11° (N) 20:22:25 29.354 - 29.394 USB, Beacon 29.352 USB
HO-68 25 Jul 20:33:36 20:40:17 44° 64° (ENE) 20:46:58 435.675 MHz FM
UKube-1 25 Jul 20:33:47 20:36:48 19° 64° (ENE) 20:39:49 145.840 MHz, 145.915 MHz
JAS-2 25 Jul 20:41:52 20:46:08 15° 274° (W) 20:50:19 435.800 - 435.900 CW/SSB, 435.910 FM
SO-50 25 Jul 20:54:56 20:57:41 15° 35° (NE) 21:00:27 436.795 FM
Oscar 11 25 Jul 21:22:09 21:25:47 27° 68° (ENE) 21:29:25 145.825 FM, Beacon 2401.500 USB
MaSat-1 25 Jul 21:23:36 21:24:51 11° 97° (E) 21:26:08 437.345 MHz
STRAND 1 25 Jul 21:30:14 21:33:53 20° 298° (WNW) 21:37:30 ?
FUNcube-1 25 Jul 21:35:05 21:37:27 15° 63° (ENE) 21:39:49 145.950 - 145.970 MHz USB
UKube-1 25 Jul 22:08:29 22:12:40 45° 260° (W) 22:16:53 145.840 MHz, 145.915 MHz
RS-15 25 Jul 22:19:11 22:29:47 49° 43° (NE) 22:40:40 29.354 - 29.394 USB, Beacon 29.352 USB
HO-68 25 Jul 22:21:25 22:28:01 39° 262° (W) 22:34:38 435.675 MHz FM
SO-50 25 Jul 22:34:16 22:39:01 78° 55° (NE) 22:43:50 436.795 FM
MaSat-1 25 Jul 22:57:17 23:01:17 70° 299° (WNW) 23:05:59 437.345 MHz
Oscar 11 25 Jul 22:58:12 23:01:54 28° 264° (W) 23:05:38 145.825 FM, Beacon 2401.500 USB
FUNcube-1 25 Jul 23:09:08 23:13:26 57° 260° (W) 23:17:39 145.950 - 145.970 MHz USB
UOSAT-12 25 Jul 23:15:03 23:18:44 22° 41° (NE) 23:22:23 437.025 FM, 437.400 FM
Lituanica SAT-1 26 Jul 00:16:38 00:18:43 74° 327° (NNW) 00:20:47 437.275 MHz beacon
SO-50 26 Jul 00:16:39 00:19:00 14° 252° (WSW) 00:21:21 436.795 FM
RS-15 26 Jul 00:31:45 00:42:23 57° 246° (WSW) 00:53:26 29.354 - 29.394 USB, Beacon 29.352 USB
MaSat-1 26 Jul 00:38:14 00:39:44 11° 321° (NW) 00:41:18 437.345 MHz
PCSat 26 Jul 00:49:04 00:52:29 17° 105° (ESE) 00:55:54 145.825 MHz
ISS 26 Jul 00:52:23 00:55:19 28° 137° (SE) 00:58:15 145.800 FM
UOSAT-12 26 Jul 00:54:36 00:59:17 62° 240° (WSW) 01:03:54 437.025 FM, 437.400 FM
Lituanica SAT-1 26 Jul 01:50:34 01:51:31 12° 346° (NNW) 01:52:28 437.275 MHz beacon
Sapphire 26 Jul 01:56:12 02:01:30 60° 116° (ESE) 02:06:50 437.095 MHz 1200 baud AX-25 AFSK
